| time (UTC) | temp F | wind direction | speed MPH | gust MPH | rain 1hr in | rain 24hr in | rain mn in | humidity % | barometer mb |
| 20260505210708 | 50 | 28 | 2.0 | 6.0 | 0.00 | 0.00 | 0.00 | 85 | 1009.1 |
| 20260505205709 | 51 | 17 | 2.0 | 9.0 | 0.00 | 0.00 | 0.00 | 84 | 1009.2 |
| 20260505204708 | 51 | 38 | 3.0 | 9.0 | 0.00 | 0.00 | 0.00 | 84 | 1009.2 |
| 20260505203706 | 51 | 70 | 3.0 | 8.0 | 0.00 | 0.00 | 0.00 | 83 | 1009.2 |
| 20260505202706 | 51 | 42 | 2.0 | 9.0 | 0.00 | 0.00 | 0.00 | 84 | 1009.2 |
| 20260505201707 | 51 | 28 | 2.0 | 9.0 | 0.00 | 0.00 | 0.00 | 84 | 1009.3 |
| 20260505200705 | 51 | 342 | 3.0 | 10.0 | 0.00 | 0.00 | 0.00 | 84 | 1009.3 |
| 20260505195704 | 52 | 169 | 3.0 | 10.0 | 0.00 | 0.00 | 0.00 | 83 | 1009.1 |
| 20260505194705 | 52 | 13 | 2.0 | 10.0 | 0.00 | 0.00 | 0.00 | 84 | 1009.1 |
| 20260505194149 | 52 | 16 | 1.0 | 5.0 | 0.00 | 0.00 | 0.00 | 84 | 1009.0 |
| 20260505192705 | 52 | 32 | 1.0 | 5.0 | 0.00 | 0.00 | 0.00 | 84 | 1008.9 |
| 20260505191704 | 53 | 55 | 2.0 | 7.0 | 0.00 | 0.00 | 0.00 | 82 | 1008.8 |
| 20260505190705 | 53 | 28 | 2.0 | 10.0 | 0.00 | 0.00 | 0.00 | 82 | 1008.8 |
| 20260505185703 | 53 | 348 | 1.0 | 7.0 | 0.00 | 0.00 | 0.00 | 82 | 1008.6 |
| 20260505183702 | 54 | 323 | 2.0 | 8.0 | 0.00 | 0.00 | 0.00 | 80 | 1008.5 |
| 20260505182705 | 54 | 333 | 1.0 | 5.0 | 0.00 | 0.00 | 0.00 | 80 | 1008.4 |
| 20260505182145 | 55 | 55 | 2.0 | 7.0 | 0.00 | 0.00 | 0.00 | 80 | 1008.3 |
| 20260505180701 | 55 | 17 | 2.0 | 9.0 | 0.00 | 0.00 | 0.00 | 80 | 1008.3 |
| 20260505175704 | 56 | 5 | 2.0 | 7.0 | 0.00 | 0.00 | 0.00 | 79 | 1008.3 |
| 20260505174702 | 56 | 25 | 2.0 | 7.0 | 0.00 | 0.00 | 0.00 | 78 | 1008.2 |
| 20260505173702 | 56 | 20 | 2.0 | 7.0 | 0.00 | 0.00 | 0.00 | 78 | 1008.2 |
| 20260505172702 | 57 | 334 | 3.0 | 8.0 | 0.00 | 0.00 | 0.00 | 77 | 1008.2 |
| 20260505171704 | 57 | 0 | 2.0 | 7.0 | 0.00 | 0.00 | 0.00 | 76 | 1008.2 |
| 20260505170701 | 57 | 156 | 2.0 | 8.0 | 0.00 | 0.00 | 0.00 | 77 | 1008.2 |
| 20260505165702 | 58 | 355 | 2.0 | 7.0 | 0.00 | 0.00 | 0.00 | 76 | 1008.3 |
| 20260505164659 | 58 | 51 | 2.0 | 8.0 | 0.00 | 0.00 | 0.00 | 76 | 1008.4 |
| 20260505163700 | 59 | 321 | 3.0 | 9.0 | 0.00 | 0.00 | 0.00 | 76 | 1008.5 |
| 20260505162701 | 60 | 44 | 3.0 | 8.0 | 0.00 | 0.00 | 0.00 | 75 | 1008.5 |
| 20260505162150 | 60 | 28 | 3.0 | 9.0 | 0.00 | 0.00 | 0.00 | 74 | 1008.5 |
| 20260505160701 | 60 | 345 | 2.0 | 7.0 | 0.00 | 0.00 | 0.00 | 75 | 1008.4 |
| 20260505152700 | 59 | 126 | 4.0 | 9.0 | 0.00 | 0.00 | 0.00 | 79 | 1008.6 |
| 20260505151700 | 58 | 44 | 2.0 | 8.0 | 0.00 | 0.00 | 0.00 | 78 | 1008.7 |
| 20260505150700 | 58 | 52 | 3.0 | 7.0 | 0.00 | 0.00 | 0.00 | 81 | 1008.7 |
| 20260505130137 | 56 | 65 | 5.0 | 12.0 | 0.00 | 0.01 | 0.00 | 86 | 1009.6 |
| 20260505123649 | 56 | 68 | 5.0 | 12.0 | 0.00 | 0.01 | 0.00 | 89 | 1009.7 |
| 20260505122650 | 56 | 63 | 7.0 | 12.0 | 0.00 | 0.01 | 0.00 | 89 | 1009.7 |
| 20260505120633 | 56 | 75 | 9.0 | 13.0 | 0.00 | 0.01 | 0.00 | 87 | 1009.8 |
| 20260505115633 | 56 | 52 | 8.0 | 15.0 | 0.00 | 0.01 | 0.00 | 88 | 1009.7 |
| 20260505114631 | 56 | 36 | 5.0 | 12.0 | 0.00 | 0.01 | 0.00 | 89 | 1009.7 |
| 20260505113630 | 55 | 61 | 5.0 | 11.0 | 0.00 | 0.01 | 0.00 | 89 | 1009.8 |
| 20260505113113 | 55 | 57 | 5.0 | 12.0 | 0.00 | 0.01 | 0.00 | 89 | 1009.9 |
| 20260505111633 | 56 | 25 | 5.0 | 14.0 | 0.00 | 0.01 | 0.00 | 89 | 1009.9 |
| 20260505111110 | 55 | 55 | 4.0 | 11.0 | 0.00 | 0.01 | 0.00 | 90 | 1010.0 |
| 20260505101604 | 54 | 63 | 3.0 | 8.0 | 0.00 | 0.01 | 0.00 | 91 | 1010.3 |
| 20260505100603 | 54 | 139 | 2.0 | 8.0 | 0.00 | 0.01 | 0.00 | 91 | 1010.3 |
| 20260505095601 | 53 | 59 | 2.0 | 8.0 | 0.00 | 0.01 | 0.00 | 92 | 1010.3 |
| 20260505094604 | 53 | 57 | 3.0 | 9.0 | 0.00 | 0.01 | 0.00 | 92 | 1010.4 |
| 20260505093533 | 52 | 61 | 4.0 | 11.0 | 0.00 | 0.01 | 0.00 | 93 | 1010.4 |
| 20260505092531 | 52 | 57 | 5.0 | 11.0 | 0.00 | 0.01 | 0.00 | 93 | 1010.5 |
| 20260505091531 | 52 | 44 | 4.0 | 9.0 | 0.00 | 0.01 | 0.00 | 93 | 1010.5 |
| 20260505090521 | 51 | 22 | 5.0 | 10.0 | 0.00 | 0.01 | 0.00 | 94 | 1010.5 |
| 20260505085520 | 51 | 61 | 4.0 | 9.0 | 0.00 | 0.01 | 0.00 | 94 | 1010.6 |
| 20260505084958 | 51 | 80 | 4.0 | 10.0 | 0.00 | 0.01 | 0.00 | 95 | 1010.7 |
| 20260505083518 | 51 | 74 | 5.0 | 10.0 | 0.00 | 0.01 | 0.00 | 96 | 1010.7 |
| 20260505082518 | 51 | 90 | 4.0 | 11.0 | 0.00 | 0.01 | 0.00 | 96 | 1010.5 |
| 20260505081945 | 51 | 78 | 4.0 | 11.0 | 0.00 | 0.01 | 0.00 | 96 | 1010.5 |
| 20260505080511 | 51 | 346 | 4.0 | 10.0 | 0.00 | 0.01 | 0.00 | 97 | 1010.5 |
| 20260505075514 | 51 | 63 | 4.0 | 10.0 | 0.00 | 0.01 | 0.00 | 96 | 1010.4 |
| 20260505074505 | 51 | 94 | 3.0 | 9.0 | 0.00 | 0.01 | 0.00 | 97 | 1010.4 |
| 20260505073506 | 51 | 38 | 4.0 | 8.0 | 0.00 | 0.01 | 0.00 | 97 | 1010.4 |
| 20260505072945 | 51 | 9 | 3.0 | 9.0 | 0.00 | 0.01 | 0.00 | 98 | 1010.4 |
| 20260505071506 | 51 | 63 | 3.0 | 10.0 | 0.00 | 0.01 | 0.00 | 98 | 1010.4 |
| 20260505070941 | 51 | 42 | 4.0 | 9.0 | 0.00 | 0.01 | 0.00 | 98 | 1010.5 |
| 20260505065502 | 51 | 351 | 3.0 | 7.0 | 0.00 | 0.01 | 0.00 | 98 | 1010.5 |
| 20260505064501 | 51 | 67 | 2.0 | 9.0 | 0.00 | 0.01 | 0.00 | 98 | 1010.5 |
| 20260505063506 | 51 | 24 | 3.0 | 7.0 | 0.00 | 0.01 | 0.00 | 98 | 1010.6 |
| 20260505062505 | 51 | 34 | 2.0 | 6.0 | 0.00 | 0.01 | 0.00 | 98 | 1010.6 |
| 20260505061501 | 51 | 63 | 2.0 | 6.0 | 0.00 | 0.01 | 0.00 | 98 | 1010.7 |
| 20260505060500 | 51 | 31 | 2.0 | 8.0 | 0.00 | 0.01 | 0.00 | 98 | 1010.7 |
| 20260505055501 | 51 | 29 | 2.0 | 7.0 | 0.00 | 0.01 | 0.00 | 97 | 1010.7 |
| 20260505054459 | 51 | 315 | 2.0 | 6.0 | 0.00 | 0.01 | 0.00 | 97 | 1010.8 |
| 20260505053457 | 51 | 33 | 1.0 | 6.0 | 0.00 | 0.01 | 0.00 | 96 | 1010.8 |
| 20260505052459 | 51 | 59 | 2.0 | 5.0 | 0.00 | 0.01 | 0.00 | 96 | 1010.9 |
| 20260505051457 | 51 | 18 | 1.0 | 4.0 | 0.00 | 0.01 | 0.00 | 96 | 1010.8 |
| 20260505050450 | 51 | 317 | 2.0 | 6.0 | 0.00 | 0.01 | 0.00 | 96 | 1010.6 |
| 20260505040438 | 51 | 86 | 1.0 | 3.0 | 0.00 | 0.01 | 0.00 | 95 | 1010.6 |
| 20260505035917 | 51 | 46 | 2.0 | 9.0 | 0.00 | 0.01 | 0.00 | 94 | 1010.6 |
| 20260505034436 | 51 | 18 | 2.0 | 7.0 | 0.00 | 0.01 | 0.00 | 94 | 1010.5 |
| 20260505033435 | 51 | 5 | 2.0 | 9.0 | 0.00 | 0.01 | 0.00 | 94 | 1010.6 |
| 20260505032436 | 51 | 320 | 3.0 | 8.0 | 0.00 | 0.01 | 0.00 | 94 | 1010.6 |
| 20260505031436 | 51 | 65 | 2.0 | 8.0 | 0.00 | 0.01 | 0.00 | 94 | 1010.7 |
| 20260505030436 | 51 | 347 | 2.0 | 8.0 | 0.00 | 0.01 | 0.00 | 94 | 1010.7 |
| 20260505025436 | 51 | 67 | 2.0 | 9.0 | 0.00 | 0.01 | 0.00 | 94 | 1010.8 |
| 20260505024437 | 52 | 54 | 3.0 | 10.0 | 0.00 | 0.01 | 0.00 | 93 | 1010.8 |
| 20260505023435 | 52 | 5 | 2.0 | 8.0 | 0.00 | 0.01 | 0.00 | 94 | 1010.9 |
| 20260505022437 | 52 | 69 | 2.0 | 9.0 | 0.00 | 0.01 | 0.00 | 94 | 1010.8 |
| 20260505021434 | 52 | 17 | 2.0 | 6.0 | 0.00 | 0.01 | 0.00 | 93 | 1010.8 |
| 20260505020434 | 52 | 9 | 2.0 | 6.0 | 0.00 | 0.01 | 0.00 | 93 | 1010.8 |
| 20260505015434 | 53 | 73 | 2.0 | 8.0 | 0.00 | 0.01 | 0.00 | 93 | 1010.7 |
| 20260505014433 | 53 | 355 | 2.0 | 7.0 | 0.00 | 0.01 | 0.00 | 93 | 1010.8 |
| 20260505013431 | 53 | 5 | 2.0 | 7.0 | 0.00 | 0.01 | 0.00 | 93 | 1010.9 |
| 20260505012432 | 53 | 88 | 2.0 | 6.0 | 0.00 | 0.01 | 0.00 | 92 | 1011.0 |
| 20260505011431 | 53 | 19 | 2.0 | 7.0 | 0.00 | 0.01 | 0.00 | 92 | 1010.9 |
| 20260505010432 | 53 | 17 | 3.0 | 10.0 | 0.00 | 0.01 | 0.00 | 92 | 1010.9 |
| 20260505005431 | 53 | 296 | 2.0 | 8.0 | 0.00 | 0.01 | 0.00 | 92 | 1011.0 |
| 20260505004431 | 54 | 320 | 2.0 | 6.0 | 0.00 | 0.01 | 0.00 | 93 | 1011.1 |
| 20260505003430 | 54 | 46 | 1.0 | 5.0 | 0.00 | 0.01 | 0.00 | 93 | 1011.2 |
| 20260505002431 | 54 | 9 | 2.0 | 6.0 | 0.00 | 0.01 | 0.00 | 93 | 1011.2 |
| 20260505001430 | 54 | 49 | 2.0 | 8.0 | 0.00 | 0.01 | 0.00 | 92 | 1011.2 |
| 20260505000430 | 54 | 32 | 2.0 | 7.0 | 0.00 | 0.01 | 0.00 | 92 | 1011.3 |
| 20260504234428 | 55 | 40 | 2.0 | 8.0 | 0.00 | 0.01 | 0.00 | 92 | 1011.3 |
| 20260504233916 | 55 | 61 | 2.0 | 9.0 | 0.00 | 0.01 | 0.00 | 92 | 1011.4 |
| 20260504232428 | 55 | 324 | 3.0 | 10.0 | 0.00 | 0.01 | 0.00 | 91 | 1011.5 |
| 20260504231429 | 55 | 79 | 2.0 | 9.0 | 0.00 | 0.01 | 0.00 | 92 | 1011.5 |
| 20260504230909 | 55 | 347 | 2.0 | 7.0 | 0.00 | 0.01 | 0.00 | 92 | 1011.6 |
| 20260504225415 | 55 | 24 | 2.0 | 6.0 | 0.00 | 0.01 | 0.00 | 92 | 1011.6 |
| 20260504224415 | 55 | 31 | 2.0 | 6.0 | 0.00 | 0.01 | 0.00 | 93 | 1011.7 |
| 20260504223418 | 55 | 323 | 2.0 | 6.0 | 0.00 | 0.01 | 0.00 | 93 | 1011.8 |
| 20260504222408 | 56 | 30 | 2.0 | 7.0 | 0.00 | 0.01 | 0.00 | 93 | 1011.8 |
| 20260504221408 | 56 | 355 | 2.0 | 9.0 | 0.00 | 0.01 | 0.00 | 93 | 1011.9 |
| 20260504220406 | 56 | 329 | 2.0 | 9.0 | 0.00 | 0.01 | 0.00 | 93 | 1011.8 |
| 20260504215405 | 56 | 46 | 2.0 | 5.0 | 0.00 | 0.02 | 0.02 | 93 | 1011.9 |
| 20260504214405 | 56 | 355 | 2.0 | 6.0 | 0.00 | 0.02 | 0.02 | 93 | 1012.0 |
| 20260504213841 | 56 | 323 | 2.0 | 5.0 | 0.00 | 0.02 | 0.02 | 93 | 1012.0 |
| 20260504212405 | 56 | 325 | 2.0 | 5.0 | 0.00 | 0.02 | 0.02 | 93 | 1012.1 |